| time (UTC) | temp F | wind direction | speed MPH | gust MPH | rain 1hr in | rain 24hr in | rain mn in | humidity % | barometer mb |
| 20260502233145 | 45 | 76 | 0.0 | 0.0 | 0.01 | 0.13 | 0.13 | 79 | 1010.3 |
| 20260502232640 | 45 | 76 | 0.0 | 0.0 | 0.02 | 0.13 | 0.13 | 79 | 1010.3 |
| 20260502232133 | 45 | 76 | 0.0 | 0.0 | 0.02 | 0.13 | 0.13 | 79 | 1010.3 |
| 20260502231627 | 45 | 76 | 0.0 | 0.0 | 0.01 | 0.12 | 0.12 | 79 | 1010.2 |
| 20260502231121 | 45 | 76 | 0.0 | 0.0 | 0.02 | 0.12 | 0.12 | 79 | 1010.2 |
| 20260502230615 | 45 | 76 | 0.0 | 0.0 | 0.02 | 0.12 | 0.12 | 79 | 1010.2 |
| 20260502230110 | 45 | 76 | 0.0 | 0.0 | 0.02 | 0.12 | 0.12 | 79 | 1010.2 |
| 20260502225603 | 45 | 76 | 0.0 | 0.0 | 0.02 | 0.12 | 0.12 | 79 | 1010.2 |
| 20260502225057 | 45 | 76 | 0.0 | 0.0 | 0.03 | 0.12 | 0.12 | 79 | 1010.3 |
| 20260502224551 | 45 | 76 | 0.0 | 0.0 | 0.03 | 0.12 | 0.12 | 79 | 1010.3 |
| 20260502224045 | 45 | 76 | 0.0 | 0.0 | 0.03 | 0.12 | 0.12 | 78 | 1010.1 |
| 20260502223539 | 45 | 76 | 0.0 | 0.0 | 0.03 | 0.12 | 0.12 | 78 | 1010.1 |
| 20260502223033 | 45 | 76 | 0.0 | 0.0 | 0.03 | 0.12 | 0.12 | 78 | 1010.0 |
| 20260502222527 | 45 | 76 | 0.0 | 0.0 | 0.02 | 0.11 | 0.11 | 78 | 1010.1 |
| 20260502222021 | 45 | 76 | 0.0 | 0.0 | 0.02 | 0.11 | 0.11 | 78 | 1010.2 |
| 20260502221516 | 45 | 76 | 0.0 | 0.0 | 0.02 | 0.10 | 0.11 | 78 | 1010.1 |
| 20260502221009 | 45 | 76 | 0.0 | 0.0 | 0.02 | 0.10 | 0.10 | 78 | 1010.3 |
| 20260502220504 | 45 | 76 | 0.0 | 0.0 | 0.02 | 0.10 | 0.10 | 78 | 1010.3 |
| 20260502215957 | 45 | 76 | 0.0 | 0.0 | 0.03 | 0.10 | 0.10 | 78 | 1010.4 |
| 20260502215451 | 45 | 76 | 0.0 | 0.0 | 0.03 | 0.10 | 0.10 | 78 | 1010.4 |
| 20260502215213 | 46 | 76 | 0.0 | 0.0 | 0.03 | 0.09 | 0.09 | 78 | 1010.4 |
| 20260502214439 | 46 | 76 | 0.0 | 0.0 | 0.03 | 0.09 | 0.09 | 78 | 1010.4 |
| 20260502213934 | 46 | 76 | 0.0 | 0.0 | 0.04 | 0.09 | 0.09 | 78 | 1010.5 |
| 20260502213427 | 46 | 76 | 0.0 | 0.0 | 0.04 | 0.09 | 0.09 | 78 | 1010.5 |
| 20260502212920 | 46 | 76 | 0.0 | 0.0 | 0.05 | 0.09 | 0.09 | 78 | 1010.5 |
| 20260502212415 | 46 | 76 | 0.0 | 0.0 | 0.06 | 0.09 | 0.09 | 78 | 1010.4 |
| 20260502211909 | 45 | 76 | 0.0 | 0.0 | 0.06 | 0.09 | 0.09 | 78 | 1010.4 |
| 20260502211403 | 45 | 76 | 0.0 | 0.0 | 0.05 | 0.08 | 0.08 | 78 | 1010.5 |
| 20260502210857 | 45 | 76 | 0.0 | 0.0 | 0.05 | 0.08 | 0.08 | 77 | 1010.5 |
| 20260502210351 | 45 | 76 | 0.0 | 0.0 | 0.06 | 0.08 | 0.08 | 77 | 1010.6 |
| 20260502205845 | 45 | 76 | 0.0 | 0.0 | 0.05 | 0.07 | 0.07 | 77 | 1010.5 |
| 20260502205339 | 45 | 76 | 0.0 | 0.0 | 0.05 | 0.07 | 0.07 | 77 | 1010.6 |
| 20260502204833 | 45 | 76 | 0.0 | 0.0 | 0.04 | 0.06 | 0.06 | 76 | 1010.5 |
| 20260502204327 | 45 | 76 | 0.0 | 0.0 | 0.04 | 0.06 | 0.06 | 75 | 1010.4 |
| 20260502204306 | 45 | 76 | 0.0 | 0.0 | 0.03 | 0.05 | 0.05 | 75 | 1010.4 |
| 20260502203321 | 45 | 76 | 0.0 | 0.0 | 0.03 | 0.05 | 0.05 | 74 | 1010.5 |
| 20260502202818 | 45 | 76 | 0.0 | 0.0 | 0.02 | 0.04 | 0.04 | 74 | 1010.6 |
| 20260502202317 | 45 | 76 | 0.0 | 0.0 | 0.01 | 0.03 | 0.03 | 73 | 1010.5 |
| 20260502201815 | 45 | 76 | 0.0 | 0.0 | 0.01 | 0.03 | 0.03 | 72 | 1010.5 |
| 20260502201314 | 45 | 76 | 0.0 | 0.0 | 0.02 | 0.03 | 0.03 | 72 | 1010.5 |
| 20260502200809 | 45 | 76 | 0.0 | 0.0 | 0.01 | 0.02 | 0.03 | 72 | 1010.5 |
| 20260502200309 | 45 | 76 | 0.0 | 0.0 | 0.01 | 0.02 | 0.02 | 72 | 1010.6 |
| 20260502195809 | 45 | 76 | 0.0 | 0.0 | 0.01 | 0.02 | 0.02 | 71 | 1010.5 |
| 20260502195309 | 45 | 76 | 0.0 | 0.0 | 0.01 | 0.02 | 0.02 | 70 | 1010.6 |
| 20260502194805 | 45 | 76 | 0.0 | 0.0 | 0.01 | 0.02 | 0.02 | 70 | 1010.5 |
| 20260502194305 | 45 | 76 | 0.0 | 0.0 | 0.01 | 0.02 | 0.02 | 70 | 1010.5 |
| 20260502193802 | 45 | 76 | 0.0 | 0.0 | 0.01 | 0.02 | 0.02 | 70 | 1010.6 |
| 20260502193300 | 46 | 76 | 0.0 | 0.0 | 0.01 | 0.02 | 0.02 | 70 | 1010.6 |
| 20260502192758 | 46 | 76 | 0.0 | 0.0 | 0.01 | 0.02 | 0.02 | 69 | 1010.7 |
| 20260502192256 | 46 | 76 | 0.0 | 0.0 | 0.01 | 0.02 | 0.02 | 69 | 1010.7 |
| 20260502191753 | 46 | 76 | 0.0 | 0.0 | 0.00 | 0.01 | 0.01 | 69 | 1010.8 |
| 20260502191254 | 46 | 76 | 0.0 | 0.0 | 0.00 | 0.01 | 0.01 | 69 | 1010.8 |
| 20260502191018 | 46 | 76 | 0.0 | 0.0 | 0.00 | 0.01 | 0.01 | 69 | 1010.8 |
| 20260502190253 | 46 | 76 | 0.0 | 0.0 | 0.00 | 0.01 | 0.01 | 69 | 1010.9 |
| 20260502185753 | 46 | 76 | 0.0 | 0.0 | 0.00 | 0.01 | 0.01 | 69 | 1010.9 |
| 20260502185247 | 46 | 76 | 0.0 | 0.0 | 0.00 | 0.01 | 0.01 | 69 | 1011.0 |
| 20260502185007 | 46 | 76 | 0.0 | 0.0 | 0.00 | 0.01 | 0.01 | 68 | 1011.1 |
| 20260502184244 | 46 | 76 | 0.0 | 0.0 | 0.00 | 0.01 | 0.01 | 68 | 1011.1 |
| 20260502183743 | 46 | 76 | 0.0 | 0.0 | 0.00 | 0.01 | 0.01 | 68 | 1011.1 |
| 20260502183241 | 46 | 76 | 0.0 | 0.0 | 0.00 | 0.01 | 0.01 | 68 | 1011.1 |
| 20260502182739 | 46 | 76 | 0.0 | 0.0 | 0.00 | 0.01 | 0.01 | 68 | 1011.2 |
| 20260502182239 | 46 | 76 | 0.0 | 0.0 | 0.00 | 0.01 | 0.01 | 68 | 1011.2 |
| 20260502181738 | 46 | 76 | 0.0 | 0.0 | 0.00 | 0.01 | 0.01 | 67 | 1011.2 |
| 20260502181238 | 46 | 76 | 0.0 | 0.0 | 0.00 | 0.01 | 0.01 | 68 | 1011.3 |
| 20260502180737 | 46 | 76 | 0.0 | 0.0 | 0.00 | 0.01 | 0.01 | 68 | 1011.3 |
| 20260502180238 | 46 | 76 | 0.0 | 0.0 | 0.00 | 0.01 | 0.01 | 68 | 1011.2 |
| 20260502170237 | 45 | 77 | 0.0 | 0.0 | 0.00 | 0.01 | 0.01 | 67 | 1011.1 |
| 20260502164239 | 45 | 77 | 0.0 | 0.0 | 0.00 | 0.01 | 0.01 | 67 | 1011.2 |
| 20260502163954 | 45 | 77 | 0.0 | 0.0 | 0.00 | 0.01 | 0.01 | 66 | 1011.2 |
| 20260502163239 | 45 | 77 | 0.0 | 0.0 | 0.00 | 0.01 | 0.01 | 67 | 1011.3 |
| 20260502162738 | 45 | 77 | 0.0 | 0.0 | 0.00 | 0.01 | 0.01 | 66 | 1011.4 |
| 20260502162456 | 45 | 77 | 0.0 | 0.0 | 0.00 | 0.01 | 0.01 | 66 | 1011.5 |
| 20260502161726 | 45 | 77 | 0.0 | 0.0 | 0.00 | 0.01 | 0.01 | 67 | 1011.4 |
| 20260502161220 | 45 | 77 | 0.0 | 0.0 | 0.00 | 0.01 | 0.01 | 67 | 1011.4 |
| 20260502160714 | 45 | 77 | 0.0 | 0.0 | 0.00 | 0.01 | 0.01 | 66 | 1011.5 |
| 20260502160208 | 45 | 77 | 0.0 | 0.0 | 0.00 | 0.01 | 0.01 | 66 | 1011.5 |
| 20260502152342 | 45 | 94 | 0.0 | 0.0 | 0.00 | 0.01 | 0.01 | 66 | 1011.4 |
| 20260502151613 | 45 | 65 | 0.0 | 0.0 | 0.00 | 0.01 | 0.01 | 67 | 1011.5 |
| 20260502151333 | 45 | 65 | 0.0 | 0.0 | 0.00 | 0.01 | 0.01 | 67 | 1011.5 |
| 20260502150602 | 44 | 106 | 0.0 | 0.0 | 0.00 | 0.01 | 0.01 | 67 | 1011.6 |
| 20260502130338 | 42 | 53 | 0.0 | 2.0 | 0.00 | 0.00 | 0.00 | 70 | 1012.4 |
| 20260502123808 | 42 | 53 | 0.0 | 1.0 | 0.00 | 0.00 | 0.00 | 77 | 1012.4 |
| 20260502123302 | 42 | 53 | 0.0 | 1.0 | 0.00 | 0.00 | 0.00 | 77 | 1012.3 |
| 20260502122756 | 42 | 196 | 0.0 | 0.0 | 0.00 | 0.00 | 0.00 | 77 | 1012.2 |
| 20260502122250 | 41 | 196 | 0.0 | 0.0 | 0.00 | 0.00 | 0.00 | 76 | 1012.3 |
| 20260502121744 | 41 | 196 | 0.0 | 0.0 | 0.00 | 0.00 | 0.00 | 75 | 1012.4 |
| 20260502121238 | 41 | 196 | 0.0 | 0.0 | 0.00 | 0.00 | 0.00 | 75 | 1012.4 |
| 20260502120732 | 41 | 196 | 0.0 | 0.0 | 0.00 | 0.00 | 0.00 | 74 | 1012.3 |
| 20260502120226 | 41 | 196 | 0.0 | 0.0 | 0.00 | 0.00 | 0.00 | 74 | 1012.4 |
| 20260502115214 | 41 | 196 | 0.0 | 0.0 | 0.00 | 0.00 | 0.00 | 74 | 1012.5 |
| 20260502114933 | 41 | 196 | 0.0 | 0.0 | 0.00 | 0.00 | 0.00 | 74 | 1012.5 |
| 20260502114202 | 41 | 196 | 0.0 | 2.0 | 0.00 | 0.00 | 0.00 | 74 | 1012.5 |
| 20260502113656 | 40 | 196 | 1.0 | 2.0 | 0.00 | 0.00 | 0.00 | 74 | 1012.6 |
| 20260502113150 | 40 | 196 | 1.0 | 2.0 | 0.00 | 0.00 | 0.00 | 74 | 1012.6 |
| 20260502112644 | 40 | 196 | 0.0 | 1.0 | 0.00 | 0.00 | 0.00 | 74 | 1012.7 |
| 20260502112138 | 40 | 196 | 0.0 | 1.0 | 0.00 | 0.00 | 0.00 | 73 | 1012.6 |
| 20260502111633 | 40 | 196 | 0.0 | 1.0 | 0.00 | 0.00 | 0.00 | 70 | 1012.6 |
| 20260502111211 | 40 | 196 | 0.0 | 0.0 | 0.00 | 0.00 | 0.00 | 69 | 1012.8 |
| 20260502110114 | 40 | 196 | 0.0 | 2.0 | 0.00 | 0.00 | 0.00 | 69 | 1012.6 |
| 20260502105608 | 40 | 196 | 0.0 | 2.0 | 0.00 | 0.00 | 0.00 | 69 | 1012.6 |
| 20260502105102 | 40 | 196 | 0.0 | 2.0 | 0.00 | 0.00 | 0.00 | 69 | 1012.5 |
| 20260502104556 | 39 | 196 | 0.0 | 1.0 | 0.00 | 0.00 | 0.00 | 68 | 1012.5 |
| 20260502104314 | 39 | 196 | 0.0 | 1.0 | 0.00 | 0.00 | 0.00 | 68 | 1012.4 |
| 20260502103544 | 39 | 196 | 0.0 | 0.0 | 0.00 | 0.00 | 0.00 | 68 | 1012.5 |
| 20260502103038 | 39 | 196 | 0.0 | 0.0 | 0.00 | 0.00 | 0.00 | 67 | 1012.6 |
| 20260502102532 | 39 | 196 | 0.0 | 0.0 | 0.00 | 0.00 | 0.00 | 67 | 1012.4 |
| 20260502102026 | 39 | 196 | 0.0 | 0.0 | 0.00 | 0.00 | 0.00 | 67 | 1012.3 |
| 20260502101526 | 38 | 196 | 0.0 | 0.0 | 0.00 | 0.00 | 0.00 | 67 | 1012.0 |
| 20260502101026 | 38 | 196 | 0.0 | 2.0 | 0.00 | 0.00 | 0.00 | 67 | 1011.8 |
| 20260502100525 | 38 | 196 | 0.0 | 2.0 | 0.00 | 0.00 | 0.00 | 67 | 1011.7 |
| 20260502091513 | 37 | 196 | 0.0 | 0.0 | 0.00 | 0.00 | 0.00 | 64 | 1011.4 |
| 20260502091012 | 37 | 196 | 0.0 | 0.0 | 0.00 | 0.00 | 0.00 | 64 | 1011.5 |
| 20260502090509 | 38 | 196 | 0.0 | 0.0 | 0.00 | 0.00 | 0.00 | 64 | 1011.6 |
| 20260502071504 | 37 | 265 | 0.0 | 0.0 | 0.00 | 0.00 | 0.00 | 65 | 1012.1 |
| 20260502071002 | 37 | 265 | 0.0 | 0.0 | 0.00 | 0.00 | 0.00 | 65 | 1012.1 |
| 20260502070728 | 37 | 265 | 0.0 | 0.0 | 0.00 | 0.00 | 0.00 | 65 | 1011.9 |
| 20260502070002 | 37 | 265 | 0.0 | 0.0 | 0.00 | 0.00 | 0.00 | 65 | 1011.9 |
| 20260502065503 | 37 | 265 | 0.0 | 0.0 | 0.00 | 0.00 | 0.00 | 66 | 1011.7 |
| 20260502065004 | 36 | 265 | 0.0 | 0.0 | 0.00 | 0.00 | 0.00 | 67 | 1011.8 |
| 20260502064504 | 36 | 265 | 0.0 | 0.0 | 0.00 | 0.00 | 0.00 | 67 | 1011.6 |
| 20260502064004 | 36 | 265 | 0.0 | 0.0 | 0.00 | 0.00 | 0.00 | 67 | 1011.6 |
| 20260502063505 | 36 | 265 | 0.0 | 0.0 | 0.00 | 0.00 | 0.00 | 68 | 1011.6 |
| 20260502063003 | 36 | 265 | 0.0 | 0.0 | 0.00 | 0.00 | 0.00 | 68 | 1011.6 |
| 20260502062500 | 36 | 265 | 0.0 | 0.0 | 0.00 | 0.00 | 0.00 | 69 | 1011.5 |
| 20260502062002 | 35 | 265 | 0.0 | 0.0 | 0.00 | 0.00 | 0.00 | 69 | 1011.5 |
| 20260502061501 | 35 | 265 | 0.0 | 0.0 | 0.00 | 0.00 | 0.00 | 69 | 1011.6 |
| 20260502060954 | 35 | 265 | 0.0 | 0.0 | 0.00 | 0.00 | 0.00 | 69 | 1011.4 |
| 20260502060447 | 35 | 265 | 0.0 | 0.0 | 0.00 | 0.00 | 0.00 | 69 | 1011.5 |
| 20260502055941 | 35 | 265 | 0.0 | 0.0 | 0.00 | 0.00 | 0.00 | 69 | 1011.5 |
| 20260502055655 | 35 | 265 | 0.0 | 0.0 | 0.00 | 0.00 | 0.00 | 69 | 1011.5 |
| 20260502054928 | 34 | 265 | 0.0 | 0.0 | 0.00 | 0.00 | 0.00 | 69 | 1011.4 |
| 20260502054423 | 34 | 265 | 0.0 | 0.0 | 0.00 | 0.00 | 0.00 | 69 | 1011.4 |
| 20260502054135 | 34 | 265 | 0.0 | 0.0 | 0.00 | 0.00 | 0.00 | 68 | 1011.5 |
| 20260502053902 | 34 | 265 | 0.0 | 0.0 | 0.00 | 0.00 | 0.00 | 68 | 1011.4 |
| 20260502052906 | 34 | 265 | 0.0 | 0.0 | 0.00 | 0.00 | 0.00 | 67 | 1011.4 |
| 20260502052359 | 34 | 265 | 0.0 | 0.0 | 0.00 | 0.00 | 0.00 | 67 | 1011.5 |
| 20260502051853 | 34 | 265 | 0.0 | 0.0 | 0.00 | 0.00 | 0.00 | 66 | 1011.4 |
| 20260502051605 | 34 | 265 | 0.0 | 0.0 | 0.00 | 0.00 | 0.00 | 66 | 1011.3 |
| 20260502051059 | 34 | 265 | 0.0 | 0.0 | 0.00 | 0.00 | 0.00 | 66 | 1011.2 |
| 20260502050334 | 35 | 265 | 0.0 | 0.0 | 0.00 | 0.00 | 0.00 | 66 | 1011.3 |
| 20260502050050 | 35 | 265 | 0.0 | 0.0 | 0.00 | 0.00 | 0.00 | 67 | 1011.3 |
| 20260502045323 | 35 | 265 | 0.0 | 0.0 | 0.00 | 0.00 | 0.00 | 67 | 1011.3 |
| 20260502044817 | 35 | 265 | 0.0 | 0.0 | 0.00 | 0.00 | 0.00 | 66 | 1011.4 |
| 20260502044311 | 35 | 265 | 0.0 | 0.0 | 0.00 | 0.00 | 0.00 | 66 | 1011.3 |
| 20260502043804 | 35 | 265 | 0.0 | 0.0 | 0.00 | 0.00 | 0.00 | 66 | 1011.2 |
| 20260502043259 | 35 | 265 | 0.0 | 0.0 | 0.00 | 0.00 | 0.00 | 66 | 1011.4 |
| 20260502042753 | 35 | 265 | 0.0 | 0.0 | 0.00 | 0.00 | 0.00 | 66 | 1011.3 |
| 20260502042247 | 35 | 265 | 0.0 | 0.0 | 0.00 | 0.00 | 0.00 | 66 | 1011.3 |
| 20260502041741 | 35 | 265 | 0.0 | 0.0 | 0.00 | 0.00 | 0.00 | 66 | 1011.3 |
| 20260502041234 | 35 | 265 | 0.0 | 0.0 | 0.00 | 0.00 | 0.00 | 66 | 1011.3 |
| 20260502040729 | 36 | 265 | 0.0 | 0.0 | 0.00 | 0.00 | 0.00 | 66 | 1011.3 |
| 20260502040222 | 36 | 265 | 0.0 | 0.0 | 0.00 | 0.00 | 0.00 | 66 | 1011.2 |
| 20260502035717 | 36 | 265 | 0.0 | 0.0 | 0.00 | 0.00 | 0.00 | 66 | 1011.2 |
| 20260502035211 | 36 | 265 | 0.0 | 0.0 | 0.00 | 0.00 | 0.00 | 66 | 1011.3 |
| 20260502034704 | 36 | 265 | 0.0 | 0.0 | 0.00 | 0.00 | 0.00 | 66 | 1011.2 |
| 20260502034159 | 37 | 265 | 0.0 | 0.0 | 0.00 | 0.00 | 0.00 | 66 | 1011.2 |
| 20260502033653 | 37 | 265 | 0.0 | 0.0 | 0.00 | 0.00 | 0.00 | 66 | 1011.1 |
| 20260502033147 | 37 | 265 | 0.0 | 0.0 | 0.00 | 0.00 | 0.00 | 66 | 1011.1 |
| 20260502032641 | 37 | 265 | 0.0 | 0.0 | 0.00 | 0.00 | 0.00 | 65 | 1011.1 |
| 20260502032134 | 37 | 265 | 0.0 | 0.0 | 0.00 | 0.00 | 0.00 | 64 | 1011.1 |
| 20260502031629 | 37 | 265 | 0.0 | 0.0 | 0.00 | 0.00 | 0.00 | 64 | 1011.0 |
| 20260502031123 | 38 | 265 | 0.0 | 0.0 | 0.00 | 0.00 | 0.00 | 64 | 1011.0 |
| 20260502030617 | 38 | 265 | 0.0 | 0.0 | 0.00 | 0.00 | 0.00 | 63 | 1011.0 |
| 20260502030111 | 38 | 265 | 0.0 | 0.0 | 0.00 | 0.00 | 0.00 | 62 | 1011.0 |
| 20260502025605 | 38 | 265 | 0.0 | 0.0 | 0.00 | 0.00 | 0.00 | 62 | 1010.9 |
| 20260502025059 | 38 | 265 | 0.0 | 0.0 | 0.00 | 0.00 | 0.00 | 63 | 1011.0 |
| 20260502024553 | 39 | 265 | 0.0 | 0.0 | 0.00 | 0.00 | 0.00 | 63 | 1011.0 |
| 20260502024047 | 39 | 265 | 0.0 | 0.0 | 0.00 | 0.00 | 0.00 | 62 | 1011.0 |
| 20260502023542 | 39 | 265 | 0.0 | 0.0 | 0.00 | 0.00 | 0.00 | 62 | 1011.1 |
| 20260502023257 | 39 | 265 | 0.0 | 0.0 | 0.00 | 0.00 | 0.00 | 62 | 1011.1 |
| 20260502022529 | 39 | 265 | 0.0 | 0.0 | 0.00 | 0.00 | 0.00 | 60 | 1011.0 |
| 20260502022023 | 39 | 265 | 0.0 | 0.0 | 0.00 | 0.00 | 0.00 | 58 | 1011.0 |
| 20260502021517 | 39 | 265 | 0.0 | 0.0 | 0.00 | 0.00 | 0.00 | 55 | 1011.0 |
| 20260502021011 | 40 | 265 | 0.0 | 0.0 | 0.00 | 0.00 | 0.00 | 53 | 1011.0 |
| 20260502020505 | 40 | 265 | 0.0 | 0.0 | 0.00 | 0.00 | 0.00 | 51 | 1010.9 |
| 20260502020228 | 40 | 265 | 0.0 | 0.0 | 0.00 | 0.00 | 0.00 | 55 | 1010.9 |
| 20260502015942 | 41 | 265 | 0.0 | 0.0 | 0.00 | 0.00 | 0.00 | 55 | 1011.0 |
| 20260502014947 | 41 | 265 | 0.0 | 0.0 | 0.00 | 0.00 | 0.00 | 57 | 1011.0 |
| 20260502014441 | 42 | 265 | 0.0 | 0.0 | 0.00 | 0.00 | 0.00 | 56 | 1010.9 |
| 20260502013935 | 42 | 265 | 0.0 | 0.0 | 0.00 | 0.00 | 0.00 | 55 | 1010.9 |
| 20260502013646 | 42 | 265 | 0.0 | 0.0 | 0.00 | 0.00 | 0.00 | 52 | 1010.9 |
| 20260502012922 | 42 | 265 | 0.0 | 0.0 | 0.00 | 0.00 | 0.00 | 52 | 1010.8 |
| 20260502012417 | 43 | 265 | 0.0 | 0.0 | 0.00 | 0.00 | 0.00 | 52 | 1010.8 |
| 20260502012133 | 43 | 265 | 0.0 | 0.0 | 0.00 | 0.00 | 0.00 | 49 | 1010.8 |
| 20260502011405 | 43 | 265 | 0.0 | 0.0 | 0.00 | 0.00 | 0.00 | 50 | 1010.7 |
| 20260502011118 | 44 | 265 | 0.0 | 0.0 | 0.00 | 0.00 | 0.00 | 49 | 1010.7 |
| 20260502010354 | 44 | 265 | 0.0 | 0.0 | 0.00 | 0.00 | 0.00 | 49 | 1010.6 |
| 20260502005847 | 44 | 265 | 0.0 | 0.0 | 0.00 | 0.00 | 0.00 | 47 | 1010.6 |
| 20260502005600 | 45 | 265 | 0.0 | 0.0 | 0.00 | 0.00 | 0.00 | 50 | 1010.6 |
| 20260502004836 | 46 | 265 | 0.0 | 0.0 | 0.00 | 0.00 | 0.00 | 47 | 1010.5 |
| 20260502004329 | 46 | 265 | 0.0 | 0.0 | 0.00 | 0.00 | 0.00 | 47 | 1010.4 |
| 20260502003823 | 47 | 265 | 0.0 | 0.0 | 0.00 | 0.00 | 0.00 | 45 | 1010.4 |
| 20260502003318 | 47 | 265 | 0.0 | 0.0 | 0.00 | 0.00 | 0.00 | 43 | 1010.3 |
| 20260502002811 | 48 | 265 | 0.0 | 0.0 | 0.00 | 0.00 | 0.00 | 40 | 1010.3 |
| 20260502002525 | 49 | 265 | 0.0 | 0.0 | 0.00 | 0.00 | 0.00 | 40 | 1010.2 |
| 20260502001759 | 49 | 265 | 0.0 | 0.0 | 0.00 | 0.00 | 0.00 | 38 | 1010.2 |
| 20260502001254 | 50 | 265 | 0.0 | 0.0 | 0.00 | 0.00 | 0.00 | 37 | 1010.0 |
| 20260502000747 | 50 | 265 | 0.0 | 0.0 | 0.00 | 0.00 | 0.00 | 36 | 1009.8 |
| 20260502000506 | 51 | 265 | 0.0 | 0.0 | 0.00 | 0.00 | 0.00 | 34 | 1009.7 |
| 20260501235735 | 51 | 265 | 0.0 | 0.0 | 0.00 | 0.00 | 0.00 | 33 | 1009.7 |
| 20260501235716 | 52 | 265 | 0.0 | 0.0 | 0.00 | 0.00 | 0.00 | 31 | 1009.6 |
| 20260501234723 | 52 | 265 | 0.0 | 0.0 | 0.00 | 0.00 | 0.00 | 29 | 1009.6 |
| 20260501234217 | 53 | 265 | 0.0 | 0.0 | 0.00 | 0.00 | 0.00 | 28 | 1009.5 |
| 20260501233711 | 53 | 265 | 0.0 | 0.0 | 0.00 | 0.00 | 0.00 | 26 | 1009.3 |